Weather History for Milton, FL

Change the Weather History Date:

Monday, December 10, 2012

  Actual Average (KNSE) Record (KNSE)
Temperature  
Mean Temperature 64 °F -  
Max Temperature 73 °F 61 °F 80 °F (2007)
Min Temperature 54 °F 43 °F 30 °F (2010)
Degree Days  
Heating Degree Days 1    
Growing Degree Days 14 (Base 50)    
Moisture  
Dew Point 63 °F    
Average Humidity 86    
Maximum Humidity 94    
Minimum Humidity 73    
Precipitation  
Precipitation 0.22 in - - ()
Sea Level Pressure  
Sea Level Pressure 29.83 in    
Wind  
Wind Speed 7 mph (SW)    
Max Wind Speed 17 mph    
Max Gust Speed 23 mph    
Visibility 9 miles    
Events Rain    
Averages and records for this station are not official NWS values.
T = Trace of Precipitation, MM = Missing Value Source: NWS Daily Summary

Daily Weather History Graph

Daily Weather History Graph

Search for Another Location

Airport:

Trip Planner

Search our weather history database for the weather conditions in past years. The results will help you decide how hot, cold, wet, or windy it might be!

Date:

Astronomy

Dec. 10, 2012 Rise Set
Actual Time 6:35 AM CST 4:47 PM CST
Civil Twilight 6:08 AM CST 5:13 PM CST
Nautical Twilight 5:38 AM CST 5:43 PM CST
Astronomical Twilight 5:09 AM CST 6:13 PM CST
Moon 3:25 AM CST (12/10) 2:30 PM CST (12/10)
Length of Visible Light 11h 05m
Length of Day
10h 12m
Waning Crescent, 10% of the Moon is Illuminated
Dec 10
Waning Crescent
Dec 13
New
Dec 19
First Quarter
Dec 28
Full
Jan 4
Last Quarter

Hourly Weather History & Observations

Time (CST) Temp. Dew Point Humidity Pressure Visibility Wind Dir Wind Speed Gust Speed Precip Events Conditions
12:56 AM 66.9 °F 64.9 °F 93% 29.91 in 10.0 mi South 6.9 mph - N/A   Scattered Clouds
1:19 AM 68.0 °F 64.4 °F 88% 29.94 in 10.0 mi South 6.9 mph - N/A   Mostly Cloudy
1:56 AM 68.0 °F 64.9 °F 90% 29.89 in 10.0 mi South 5.8 mph - N/A   Mostly Cloudy
2:12 AM 66.2 °F 64.4 °F 94% 29.93 in 10.0 mi South 5.8 mph - N/A   Scattered Clouds
2:56 AM 66.9 °F 64.9 °F 93% 29.88 in 10.0 mi South 4.6 mph - N/A   Mostly Cloudy
3:33 AM 66.2 °F 64.4 °F 94% 29.91 in 10.0 mi South 5.8 mph - N/A   Scattered Clouds
3:56 AM 66.9 °F 64.9 °F 93% 29.86 in 10.0 mi South 6.9 mph - N/A   Mostly Cloudy
4:19 AM 68.0 °F 64.4 °F 88% 29.89 in 10.0 mi South 8.1 mph - N/A   Scattered Clouds
4:56 AM 68.0 °F 64.9 °F 90% 29.84 in 10.0 mi South 6.9 mph - N/A   Scattered Clouds
5:56 AM 68.0 °F 64.9 °F 90% 29.82 in 10.0 mi South 6.9 mph - N/A   Mostly Cloudy
6:56 AM 68.0 °F 64.9 °F 90% 29.82 in 10.0 mi South 6.9 mph - N/A   Mostly Cloudy
7:09 AM 69.8 °F 66.2 °F 88% 29.87 in 10.0 mi SSW 4.6 mph - N/A   Overcast
7:35 AM 69.8 °F 66.2 °F 88% 29.86 in 10.0 mi South 8.1 mph - N/A   Scattered Clouds
7:56 AM 71.1 °F 66.0 °F 84% 29.83 in 10.0 mi South 6.9 mph - N/A   Clear
8:25 AM 71.6 °F 66.2 °F 83% 29.87 in 10.0 mi SSW 10.4 mph 16.1 mph N/A   Mostly Cloudy
8:56 AM 72.0 °F 66.0 °F 81% 29.85 in 10.0 mi SSW 12.7 mph 19.6 mph N/A   Overcast
9:56 AM 72.0 °F 68.0 °F 87% 29.84 in 10.0 mi SSW 9.2 mph 17.3 mph N/A Rain Light Rain
10:56 AM 73.9 °F 66.0 °F 76% 29.81 in 10.0 mi SSW 9.2 mph 20.7 mph N/A   Overcast
11:56 AM 73.9 °F 66.9 °F 79% 29.78 in 10.0 mi South 9.2 mph 17.3 mph N/A   Overcast
12:37 PM 71.6 °F 68.0 °F 88% 29.81 in 10.0 mi Variable 6.9 mph 17.3 mph 0.03 in Rain Light Rain
12:56 PM 72.0 °F 68.0 °F 87% 29.74 in 5.0 mi NW 9.2 mph - 0.07 in Rain Rain
1:02 PM 71.6 °F 68.0 °F 88% 29.80 in 2.0 mi WSW 8.1 mph - 0.12 in Rain Rain
1:09 PM 69.8 °F 66.2 °F 88% 29.80 in 1.5 mi Variable 6.9 mph - 0.15 in Rain Heavy Rain
1:12 PM 71.6 °F 68.0 °F 88% 29.79 in 3.0 mi Variable 6.9 mph - 0.15 in Rain Light Rain
1:24 PM 73.4 °F 69.8 °F 88% 29.79 in 10.0 mi Variable 5.8 mph - 0.15 in   Scattered Clouds
1:56 PM 73.9 °F 66.9 °F 79% 29.75 in 10.0 mi WSW 9.2 mph 19.6 mph 0.15 in   Clear
2:56 PM 73.9 °F 64.9 °F 73% 29.74 in 10.0 mi SW 5.8 mph - N/A   Mostly Cloudy
3:20 PM 73.4 °F 64.4 °F 73% 29.78 in 10.0 mi Variable 4.6 mph - N/A   Mostly Cloudy
3:56 PM 73.0 °F 64.0 °F 73% 29.74 in 10.0 mi SW 5.8 mph - N/A   Partly Cloudy
4:56 PM 70.0 °F 62.1 °F 76% 29.74 in 10.0 mi Calm Calm - N/A   Clear
5:24 PM 69.8 °F 60.8 °F 73% 29.80 in 10.0 mi West 4.6 mph - N/A   Mostly Cloudy
5:51 PM 69.8 °F 60.8 °F 73% 29.80 in 10.0 mi Variable 4.6 mph - N/A   Overcast
5:56 PM 69.1 °F 61.0 °F 75% 29.77 in 10.0 mi Variable 3.5 mph - N/A   Overcast
6:56 PM 66.9 °F 62.1 °F 84% 29.78 in 10.0 mi NW 6.9 mph - N/A   Overcast
7:23 PM 66.2 °F 62.6 °F 88% 29.84 in 10.0 mi NW 5.8 mph - N/A   Mostly Cloudy
7:48 PM 66.2 °F 62.6 °F 88% 29.84 in 10.0 mi WNW 3.5 mph - N/A   Scattered Clouds
7:56 PM 66.0 °F 62.1 °F 87% 29.81 in 10.0 mi Calm Calm - N/A   Scattered Clouds
8:19 PM 64.4 °F 62.6 °F 94% 29.85 in 10.0 mi Calm Calm - N/A   Mostly Cloudy
8:32 PM 64.4 °F 60.8 °F 88% 29.86 in 6.0 mi NW 17.3 mph 23.0 mph 0.00 in Rain Light Rain
8:56 PM 60.1 °F 57.9 °F 93% 29.83 in 10.0 mi NW 10.4 mph - 0.00 in   Overcast
9:21 PM 57.2 °F 55.4 °F 94% 29.89 in 9.0 mi NW 11.5 mph 19.6 mph N/A   Overcast
9:52 PM 57.2 °F 55.4 °F 94% 29.89 in 10.0 mi NW 10.4 mph - N/A   Overcast
9:56 PM 57.9 °F 55.0 °F 90% 29.86 in 10.0 mi NNW 10.4 mph - N/A   Overcast
10:56 PM 55.9 °F 53.1 °F 90% 29.88 in 10.0 mi NNW 10.4 mph 19.6 mph N/A   Overcast
11:56 PM 54.0 °F 51.1 °F 90% 29.88 in 10.0 mi NNW 16.1 mph - N/A   Overcast